Location: Romentino
(45.4667°N, 8.7000°E)
Time: 01:16:03
(UTC+00:00)

Daily predictions for brighter satellites

Satellite Brightness Start Highest point End
(mag) Time Altitude Azimuth Time Altitude Azimuth Time Altitude Azimuth
Cosmos 2344 4.1 02:53:31 52° E 02:53:31 52° E 02:59:40 10° NE
USA 238 DEB 4.5 03:12:40 43° ESE 03:12:54 43° ESE 03:19:12 10° NE
USA 238 4.5 03:12:43 42° ESE 03:13:01 43° ESE 03:19:19 10° NE
USA 215 3.8 03:19:25 10° E 03:25:36 47° NNE 03:25:43 47° NNE
Cosmos 2369 Rocket 4.1 03:32:48 10° SSE 03:37:24 27° ESE 03:42:01 10° NE
NOSS 3-3 (A) 4.5 03:44:28 65° NNW 03:45:51 87° NE 03:54:23 10° SE
NOSS 3-3 (C) 4.5 03:44:32 65° NNW 03:45:57 86° NE 03:54:28 10° SE
COSMO-SKYMED 1 4.5 03:43:41 10° SE 03:47:21 27° ENE 03:48:36 24° NE
Cosmos 1867 4.0 03:50:14 55° SE 03:50:14 55° SE 03:54:27 10° SE
Cosmos 2208 Rocket 4.3 03:52:18 67° ESE 03:52:18 67° ESE 03:57:11 10° SSE
Tsikada Rocket 4.2 03:45:55 10° S 03:52:02 67° E 03:58:17 10° NNE
Gblst 52 Del rocket 4.3 03:54:35 81° NNE 03:54:35 81° NNE 04:00:59 10° ENE
Cosmos 1943 Rocket 2.0 04:06:38 81° NNW 04:06:38 81° NNW 04:12:09 10° NNE
CZ-2C R/B 3.4 04:03:09 10° SE 04:08:26 51° ENE 04:13:24 11° N
SL-19 R/B 4.3 04:05:05 10° SSE 04:10:40 77° ENE 04:13:20 32° N
Cosmos 1241 Rocket 4.3 04:10:33 66° NW 04:11:27 82° WSW 04:17:38 10° SSE
SL-8 R/B 3.9 04:16:23 63° NNE 04:16:23 63° NNE 04:20:59 10° E
CENTAUR R/B 2.4 04:16:08 61° W 04:16:58 68° NW 04:24:06 10° NE
Cosmos 2297 3.6 04:21:07 64° WNW 04:21:24 65° WNW 04:27:07 10° NNE
Iridium 2 4.4 04:22:45 10° SSE 04:26:25 53° E 04:30:08 10° NNE
NOSS 3-2 (A) 3.6 04:27:50 48° NW 04:28:06 48° NW 04:34:28 10° NNE
Cosmos 2278 Rocket 4.2 04:33:50 14° NNW 04:33:50 14° NNW 04:35:02 10° N
SKYMED 2 3.5 04:30:53 10° SSE 04:35:13 83° ENE 04:37:12 32° N
NOSS 3-2 (C) 3.2 04:33:35 43° WSW 04:35:30 69° NW 04:41:59 10° NE
Envisat 3.0 04:30:53 10° NNE 04:35:59 83° ESE 04:41:05 10° SSW
Cosmos 2098 Rocket 3.1 04:37:34 10° S 04:41:21 77° E 04:46:10 10° N
Meteor 2-3 Rocket 3.8 04:36:32 10° SSW 04:42:03 53° WNW 04:47:40 10° N
Landsat 5 3.7 04:40:21 10° SSE 04:44:51 81° ENE 04:48:26 16° N
Cosmos 968 Rocket 3.4 04:42:38 26° SW 04:45:28 59° WNW 04:50:34 10° NNE
Meteor 2-13 Rocket 4.3 04:40:21 10° SSW 04:46:27 74° W 04:52:33 10° N
CZ-4B R/B 4.1 04:44:01 10° NNE 04:48:30 89° ESE 04:52:58 10° SSW
Genesis I 3.6 04:49:24 46° SW 04:49:24 46° SW 04:53:12 10° SSE
Cosmos 921 Rocket 3.0 04:50:35 45° NW 04:51:35 58° WSW 04:55:58 10° S
Okean 3 Rocket 3.8 04:48:28 10° S 04:52:59 75° E 04:57:33 10° NNE
ATLAS 5 CENTAUR R/B 4.4 04:52:36 10° SSE 04:54:54 15° ESE 04:57:17 10° ENE
H-2A R/B 3.7 04:51:48 10° SE 04:55:36 33° ENE 04:59:31 10° N
DNEPR-1 R/B 4.0 04:53:15 27° NNW 04:55:54 79° NE 05:01:35 10° SE
Cosmos 1833 4.4 04:51:16 15° NNW 04:56:04 70° ENE 05:01:47 10° SSE
Cosmos 1812 2.6 04:56:57 43° NW 04:57:56 59° W 05:01:42 10° S
CBERS 1 LM4 rocket 4.3 04:54:21 10° N 04:59:12 76° WNW 05:04:11 10° SSW
ADEOS 3.9 04:54:18 10° NNE 04:59:31 69° ESE 05:04:43 10° S
USA 238 DEB 3.9 05:00:10 25° WSW 05:03:47 47° NW 05:10:27 10° NNE
USA 238 3.9 05:00:14 24° WSW 05:03:53 47° NW 05:10:33 10° NNE
Cosmos 2142 Rocket 4.4 04:58:21 10° NNW 05:04:41 74° W 05:11:02 10° S
Cosmos 1151 Rocket 3.0 05:01:35 17° NNW 05:04:48 60° W 05:09:06 10° S
Cosmos 1766 Rocket 3.4 05:01:52 10° SSW 05:06:11 71° W 05:10:32 10° N
Cosmos 2344 4.1 05:03:35 25° W 05:07:02 38° NNW 05:14:32 10° NE
Cosmos 2263 4.1 05:01:31 10° SSW 05:07:12 83° WNW 05:13:00 10° NNE
CZ-2C R/B 3.7 05:02:43 10° NNE 05:07:30 55° E 05:12:26 10° S
USA 215 3.2 05:01:53 10° SE 05:08:24 74° SW 05:13:03 21° WNW
Meteor PRIRODA 4.2 05:09:14 10° NNE 05:12:49 58° E 05:16:23 10° S
Meteor 1-31 Rocket 3.0 05:10:37 10° N 05:14:22 46° WNW 05:18:06 10° SW
Cosmos 1782 4.4 05:15:55 18° WSW 05:15:55 18° WSW 05:17:36 10° SW
Cosmos 2279 Rocket 3.9 05:09:17 10° NNW 05:15:25 65° W 05:21:31 10° S
Cosmos 2297 Rocket 4.5 05:12:20 10° N 05:16:03 17° NE 05:19:44 10° E
IRAS Rocket 4.2 05:11:27 10° SSE 05:16:58 89° ENE 05:22:30 10° NNW
Cosmos 1328 Rocket 3.5 05:13:08 10° NNW 05:17:30 62° W 05:21:47 10° S
BREEZE-M DEB (TANK) 4.0 05:04:28 10° SW 05:17:51 60° SSE 05:21:32 10° ENE
Cosmos 2369 Rocket 2.3 05:15:43 10° SW 05:21:07 49° WNW 05:26:34 10° NNE
FALCON 9 DEB 4.0 05:21:07 28° NW 05:21:57 32° NNW 05:25:04 10° NE
Cosmos 1862 3.5 05:18:44 10° SSW 05:22:32 45° WNW 05:26:21 10° N
SMAP 4.4 05:18:47 10° NNE 05:23:13 42° E 05:27:38 10° S
COSMO-SKYMED 1 3.3 05:19:34 10° SSW 05:23:25 31° W 05:25:48 19° NW
Nadezhda 4 Rocket 4.2 05:19:26 10° S 05:25:33 75° E 05:31:47 10° NNE
H-2A R/B 3.7 05:24:40 10° NNW 05:27:39 23° WNW 05:30:40 10° WSW
H-2A R/B 4.2 05:30:12 10° NE 05:34:26 28° E 05:38:39 10° SSE
Meteor 2-15 Rocket 4.4 05:29:05 10° N 05:35:11 86° W 05:41:15 10° S
Cosmos 2228 Rocket 4.4 05:31:20 10° N 05:35:35 41° ENE 05:39:52 10° SSE
CZ-4B R/B 2.4 05:33:36 10° N 05:37:11 79° WNW 05:40:45 10° SSW
CZ-4B R/B 2.6 05:36:09 10° SE 05:39:20 42° ENE 05:42:28 10° N
Cosmos 1408 Rocket 3.5 05:37:19 10° SSW 05:41:35 63° W 05:45:53 10° N
Cosmos 783 Rocket 4.5 05:38:39 10° NNW 05:43:50 70° WSW 05:48:59 10° S
CZ-4C R/B 4.0 05:41:53 10° SSW 05:44:25 22° W 05:46:01 15° NW
DMSP B5D2-2 4.2 05:39:35 10° S 05:44:43 57° W 05:49:52 10° NNW
Cosmos 1656 Rocket 3.9 05:39:41 10° SW 05:44:49 43° WNW 05:50:01 10° NNE
Cosmos 1503 Rocket 4.2 05:39:59 10° SW 05:45:07 52° WNW 05:50:21 10° NNE
USA 32 4.3 05:41:59 10° N 05:47:15 73° E 05:52:28 10° SSE
Cosmos 1743 Rocket 3.7 05:44:30 10° S 05:48:54 82° E 05:53:17 10° N
CZ-2C R/B 3.7 05:44:36 10° SW 05:48:58 24° W 05:53:18 10° NW
Cosmos 1943 Rocket 3.6 05:48:15 12° WNW 05:51:07 17° NW 05:54:48 10° N
FAST Rocket 3.9 05:48:34 10° S 05:51:10 88° W 05:54:08 10° N
Cosmos 2227 Rocket 4.2 05:47:15 10° N 05:51:34 22° NE 05:55:52 10° E
PSLV R/B 4.4 05:52:43 10° SSE 05:56:43 62° ENE 06:00:46 10° N
Cosmos 1777 Rocket 4.0 05:51:33 10° SSW 05:56:46 86° WNW 06:02:03 10° NNE
Cosmos 1515 Rocket 3.9 05:53:37 10° NNW 05:57:45 42° W 06:01:50 10° SSW
SL-8 R/B 3.9 05:54:22 12° WNW 05:58:49 63° SSW 06:03:32 10° SE
CORIOLIS 4.4 05:55:10 10° NNE 06:00:39 78° ESE 06:06:06 10° S
Meteor 1-27 Rocket 3.8 05:55:19 10° NNW 06:00:51 61° W 06:06:29 10° S
Cosmos 1602 4.1 05:57:33 10° S 06:01:21 69° E 06:05:09 10° NNE
NOAA 6 4.1 05:57:36 10° NNE 06:02:45 90° W 06:07:52 10° SSW
COSMOS 2487 2.9 06:01:43 10° NNW 06:05:03 60° ENE 06:08:21 10° SSE
Cosmos 773 Rocket 4.2 06:00:23 10° NNW 06:05:26 50° WSW 06:10:25 10° S
SJ 16-02 1.3 06:01:58 10° SSW 06:06:20 73° WNW 06:10:43 10° NNE
CENTAUR R/B 3.8 06:03:51 10° WNW 06:09:08 25° NNW 06:15:11 10° NNE
Alouette 2 Rocket 3.2 06:07:27 10° NNW 06:11:16 61° W 06:14:47 10° S
NOAA 12 4.3 06:08:45 10° N 06:13:49 48° WNW 06:18:50 10° SW
Envisat 4.5 06:11:29 10° NNW 06:14:20 15° WNW 06:17:11 10° W
Cosmos 1340 Rocket 2.9 06:10:36 10° SSW 06:14:27 51° WNW 06:18:21 10° N
